| time (UTC) | temp C | wind direction | speed KPH | gust KPH | rain 1hr cm | rain 24hr cm | rain mn cm | humidity % | barometer mb |
| 20260504151133 | 16 | 67 | 4.8 | 22.5 | 0.00 | 0.00 | 0.00 | 41 | 1012.1 |
| 20260504150630 | 17 | 323 | 16.1 | 19.3 | 0.00 | 0.00 | 0.00 | 39 | 1012.1 |
| 20260504150127 | 17 | 326 | 1.6 | 12.9 | 0.00 | 0.00 | 0.00 | 42 | 1012.0 |
| 20260504141055 | 17 | 225 | 3.2 | 27.4 | 0.00 | 0.00 | 0.00 | 44 | 1012.7 |
| 20260504140552 | 17 | 296 | 4.8 | 22.5 | 0.00 | 0.00 | 0.00 | 40 | 1012.5 |
| 20260504130516 | 14 | 280 | 6.4 | 22.5 | 0.00 | 0.00 | 0.00 | 47 | 1013.2 |
| 20260504110404 | 9 | 55 | 0.0 | 11.3 | 0.00 | 0.00 | 0.00 | 65 | 1013.5 |
| 20260504100321 | 4 | 130 | 1.6 | 6.4 | 0.00 | 0.00 | 0.00 | 86 | 1013.3 |
| 20260504081715 | 2 | 112 | 1.6 | 4.8 | 0.00 | 0.00 | 0.00 | 91 | 1012.7 |
| 20260504081211 | 2 | 324 | 0.0 | 1.6 | 0.00 | 0.00 | 0.00 | 91 | 1013.0 |
| 20260504080707 | 2 | 189 | 0.0 | 1.6 | 0.00 | 0.00 | 0.00 | 90 | 1012.8 |
| 20260504080204 | 2 | 230 | 0.0 | 3.2 | 0.00 | 0.00 | 0.00 | 90 | 1012.9 |
| 20260504070131 | 2 | 242 | 0.0 | 3.2 | 0.00 | 0.00 | 0.00 | 88 | 1013.0 |
| 20260504050520 | 2 | 223 | 0.0 | 3.2 | 0.00 | 0.00 | 0.00 | 90 | 1013.2 |
| 20260504050017 | 2 | 252 | 0.0 | 3.2 | 0.00 | 0.00 | 0.00 | 91 | 1013.1 |
| 20260504045514 | 1 | 282 | 0.0 | 3.2 | 0.00 | 0.00 | 0.00 | 91 | 1013.2 |
| 20260504045009 | 1 | 230 | 0.0 | 1.6 | 0.00 | 0.00 | 0.00 | 90 | 1013.1 |
| 20260504044507 | 2 | 142 | 1.6 | 3.2 | 0.00 | 0.00 | 0.00 | 90 | 1013.1 |
| 20260504044004 | 2 | 356 | 1.6 | 3.2 | 0.00 | 0.00 | 0.00 | 90 | 1013.1 |
| 20260504043500 | 2 | 176 | 0.0 | 3.2 | 0.00 | 0.00 | 0.00 | 90 | 1013.2 |
| 20260504042958 | 2 | 122 | 0.0 | 3.2 | 0.00 | 0.00 | 0.00 | 90 | 1013.1 |
| 20260504042454 | 2 | 324 | 0.0 | 1.6 | 0.00 | 0.00 | 0.00 | 90 | 1013.2 |
| 20260504041952 | 2 | 187 | 1.6 | 3.2 | 0.00 | 0.00 | 0.00 | 89 | 1013.3 |
| 20260504041448 | 2 | 30 | 0.0 | 1.6 | 0.00 | 0.00 | 0.00 | 89 | 1013.1 |
| 20260504040943 | 2 | 250 | 0.0 | 3.2 | 0.00 | 0.00 | 0.00 | 88 | 1013.0 |
| 20260504040441 | 2 | 183 | 0.0 | 3.2 | 0.00 | 0.00 | 0.00 | 87 | 1013.0 |
| 20260504035937 | 2 | 144 | 0.0 | 3.2 | 0.00 | 0.00 | 0.00 | 87 | 1013.1 |
| 20260504035435 | 2 | 189 | 0.0 | 3.2 | 0.00 | 0.00 | 0.00 | 86 | 1013.1 |
| 20260504034931 | 2 | 267 | 1.6 | 3.2 | 0.00 | 0.00 | 0.00 | 86 | 1013.1 |
| 20260504034429 | 2 | 264 | 1.6 | 3.2 | 0.00 | 0.00 | 0.00 | 86 | 1012.9 |
| 20260504033926 | 2 | 189 | 0.0 | 3.2 | 0.00 | 0.00 | 0.00 | 85 | 1012.8 |
| 20260504033424 | 2 | 113 | 0.0 | 1.6 | 0.00 | 0.00 | 0.00 | 85 | 1012.8 |
| 20260504032920 | 2 | 324 | 0.0 | 1.6 | 0.00 | 0.00 | 0.00 | 85 | 1012.8 |
| 20260504032417 | 2 | 226 | 0.0 | 1.6 | 0.00 | 0.00 | 0.00 | 84 | 1012.9 |
| 20260504031914 | 3 | 157 | 1.6 | 3.2 | 0.00 | 0.00 | 0.00 | 84 | 1012.8 |
| 20260504031411 | 3 | 286 | 0.0 | 3.2 | 0.00 | 0.00 | 0.00 | 84 | 1012.8 |
| 20260504030908 | 3 | 166 | 0.0 | 3.2 | 0.00 | 0.00 | 0.00 | 83 | 1012.6 |
| 20260504030405 | 3 | 155 | 0.0 | 3.2 | 0.00 | 0.00 | 0.00 | 83 | 1012.7 |
| 20260504025901 | 3 | 245 | 0.0 | 3.2 | 0.00 | 0.00 | 0.00 | 82 | 1012.5 |
| 20260504025358 | 3 | 247 | 0.0 | 1.6 | 0.00 | 0.00 | 0.00 | 81 | 1012.7 |
| 20260504024855 | 3 | 212 | 0.0 | 3.2 | 0.00 | 0.00 | 0.00 | 80 | 1012.8 |
| 20260504024351 | 3 | 164 | 3.2 | 3.2 | 0.00 | 0.00 | 0.00 | 80 | 1012.9 |
| 20260504023848 | 3 | 187 | 1.6 | 3.2 | 0.00 | 0.00 | 0.00 | 79 | 1012.7 |
| 20260504023345 | 3 | 140 | 3.2 | 3.2 | 0.00 | 0.00 | 0.00 | 78 | 1012.8 |
| 20260504022840 | 3 | 251 | 0.0 | 3.2 | 0.00 | 0.00 | 0.00 | 78 | 1012.8 |
| 20260504022337 | 3 | 203 | 0.0 | 3.2 | 0.00 | 0.00 | 0.00 | 78 | 1012.9 |
| 20260504021834 | 4 | 85 | 0.0 | 1.6 | 0.00 | 0.00 | 0.00 | 78 | 1012.9 |
| 20260504021331 | 4 | 172 | 0.0 | 0.0 | 0.00 | 0.00 | 0.00 | 77 | 1012.7 |
| 20260504020828 | 4 | 156 | 0.0 | 1.6 | 0.00 | 0.00 | 0.00 | 76 | 1012.5 |
| 20260504020325 | 5 | 189 | 0.0 | 1.6 | 0.00 | 0.00 | 0.00 | 74 | 1012.6 |
| 20260504015821 | 5 | 231 | 0.0 | 3.2 | 0.00 | 0.00 | 0.00 | 74 | 1012.5 |
| 20260504015317 | 5 | 147 | 3.2 | 4.8 | 0.00 | 0.00 | 0.00 | 73 | 1012.7 |
| 20260504014814 | 5 | 154 | 1.6 | 3.2 | 0.00 | 0.00 | 0.00 | 74 | 1012.4 |
| 20260504014309 | 5 | 134 | 0.0 | 3.2 | 0.00 | 0.00 | 0.00 | 72 | 1012.4 |
| 20260504013808 | 5 | 230 | 0.0 | 3.2 | 0.00 | 0.00 | 0.00 | 71 | 1012.4 |
| 20260504013305 | 6 | 175 | 0.0 | 3.2 | 0.00 | 0.00 | 0.00 | 70 | 1012.4 |
| 20260504012801 | 6 | 195 | 1.6 | 3.2 | 0.00 | 0.00 | 0.00 | 69 | 1012.3 |
| 20260504012300 | 6 | 189 | 0.0 | 1.6 | 0.00 | 0.00 | 0.00 | 67 | 1012.3 |
| 20260504011756 | 6 | 224 | 0.0 | 1.6 | 0.00 | 0.00 | 0.00 | 64 | 1012.2 |
| 20260504011253 | 6 | 224 | 0.0 | 3.2 | 0.00 | 0.00 | 0.00 | 62 | 1012.1 |
| 20260504010749 | 7 | 234 | 0.0 | 3.2 | 0.00 | 0.00 | 0.00 | 63 | 1012.1 |
| 20260504010244 | 7 | 204 | 0.0 | 3.2 | 0.00 | 0.00 | 0.00 | 64 | 1012.1 |
| 20260504005742 | 7 | 164 | 1.6 | 3.2 | 0.00 | 0.00 | 0.00 | 60 | 1011.8 |
| 20260504005238 | 7 | 154 | 1.6 | 3.2 | 0.00 | 0.00 | 0.00 | 62 | 1011.8 |
| 20260504004736 | 7 | 138 | 0.0 | 3.2 | 0.00 | 0.00 | 0.00 | 61 | 1011.6 |
| 20260504004233 | 7 | 153 | 0.0 | 3.2 | 0.00 | 0.00 | 0.00 | 59 | 1011.7 |
| 20260504003730 | 7 | 115 | 0.0 | 1.6 | 0.00 | 0.00 | 0.00 | 58 | 1011.5 |
| 20260504003227 | 7 | 219 | 0.0 | 3.2 | 0.00 | 0.00 | 0.00 | 56 | 1011.4 |
| 20260504002723 | 7 | 183 | 0.0 | 4.8 | 0.00 | 0.00 | 0.00 | 58 | 1011.4 |
| 20260504002220 | 7 | 146 | 3.2 | 3.2 | 0.00 | 0.00 | 0.00 | 56 | 1011.5 |
| 20260504001718 | 8 | 130 | 1.6 | 4.8 | 0.00 | 0.00 | 0.00 | 55 | 1010.9 |
| 20260504001215 | 8 | 148 | 0.0 | 4.8 | 0.00 | 0.00 | 0.00 | 54 | 1010.9 |
| 20260504000711 | 8 | 147 | 3.2 | 4.8 | 0.00 | 0.00 | 0.00 | 53 | 1011.0 |
| 20260504000208 | 9 | 150 | 1.6 | 3.2 | 0.00 | 0.00 | 0.00 | 50 | 1010.9 |
| 20260503235707 | 9 | 161 | 3.2 | 4.8 | 0.00 | 0.00 | 0.00 | 51 | 1010.9 |
| 20260503235203 | 10 | 129 | 1.6 | 3.2 | 0.00 | 0.00 | 0.00 | 47 | 1010.5 |
| 20260503234701 | 10 | 165 | 1.6 | 3.2 | 0.00 | 0.00 | 0.00 | 45 | 1010.6 |
| 20260503234159 | 11 | 145 | 1.6 | 4.8 | 0.00 | 0.00 | 0.00 | 43 | 1010.6 |
| 20260503233655 | 11 | 34 | 0.0 | 8.0 | 0.00 | 0.00 | 0.00 | 39 | 1010.5 |
| 20260503233151 | 11 | 204 | 0.0 | 4.8 | 0.00 | 0.00 | 0.00 | 40 | 1010.5 |
| 20260503232648 | 11 | 73 | 0.0 | 4.8 | 0.00 | 0.00 | 0.00 | 39 | 1010.4 |
| 20260503232146 | 12 | 101 | 4.8 | 6.4 | 0.00 | 0.00 | 0.00 | 38 | 1010.6 |
| 20260503231644 | 12 | 216 | 3.2 | 6.4 | 0.00 | 0.00 | 0.00 | 39 | 1010.4 |
| 20260503231140 | 12 | 188 | 4.8 | 4.8 | 0.00 | 0.00 | 0.00 | 38 | 1010.5 |
| 20260503230637 | 12 | 203 | 4.8 | 6.4 | 0.00 | 0.00 | 0.00 | 38 | 1010.4 |
| 20260503230134 | 12 | 91 | 6.4 | 11.3 | 0.00 | 0.00 | 0.00 | 38 | 1010.5 |
| 20260503225631 | 12 | 164 | 6.4 | 11.3 | 0.00 | 0.00 | 0.00 | 37 | 1010.4 |
| 20260503225131 | 13 | 180 | 8.0 | 11.3 | 0.00 | 0.00 | 0.00 | 36 | 1010.3 |
| 20260503224629 | 12 | 11 | 4.8 | 11.3 | 0.00 | 0.00 | 0.00 | 38 | 1010.5 |
| 20260503224126 | 12 | 118 | 3.2 | 9.7 | 0.00 | 0.00 | 0.00 | 37 | 1010.3 |
| 20260503223624 | 12 | 216 | 1.6 | 4.8 | 0.00 | 0.00 | 0.00 | 38 | 1010.4 |
| 20260503223120 | 12 | 102 | 3.2 | 11.3 | 0.00 | 0.00 | 0.00 | 36 | 1010.3 |
| 20260503222618 | 12 | 119 | 3.2 | 11.3 | 0.00 | 0.00 | 0.00 | 37 | 1010.3 |
| 20260503222115 | 12 | 86 | 3.2 | 9.7 | 0.00 | 0.00 | 0.00 | 37 | 1010.4 |
| 20260503221614 | 12 | 81 | 4.8 | 8.0 | 0.00 | 0.00 | 0.00 | 37 | 1010.2 |
| 20260503221111 | 12 | 91 | 4.8 | 11.3 | 0.00 | 0.00 | 0.00 | 36 | 1010.2 |
| 20260503220608 | 12 | 62 | 3.2 | 19.3 | 0.00 | 0.00 | 0.00 | 37 | 1010.0 |
| 20260503220104 | 12 | 22 | 11.3 | 17.7 | 0.00 | 0.00 | 0.00 | 38 | 1010.3 |
| 20260503215601 | 12 | 112 | 3.2 | 11.3 | 0.00 | 0.00 | 0.00 | 38 | 1010.3 |
| 20260503215058 | 12 | 189 | 4.8 | 16.1 | 0.00 | 0.00 | 0.00 | 40 | 1010.3 |
| 20260503214556 | 12 | 219 | 4.8 | 16.1 | 0.00 | 0.00 | 0.00 | 39 | 1010.4 |
| 20260503214052 | 12 | 235 | 0.0 | 8.0 | 0.00 | 0.00 | 0.00 | 39 | 1010.3 |
| 20260503213551 | 12 | 83 | 4.8 | 16.1 | 0.00 | 0.00 | 0.00 | 40 | 1010.3 |
| 20260503213047 | 12 | 165 | 8.0 | 16.1 | 0.00 | 0.00 | 0.00 | 38 | 1010.2 |
| 20260503212545 | 12 | 149 | 0.0 | 6.4 | 0.00 | 0.00 | 0.00 | 40 | 1010.5 |
| 20260503212042 | 12 | 126 | 4.8 | 16.1 | 0.00 | 0.00 | 0.00 | 39 | 1010.2 |
| 20260503211539 | 12 | 38 | 17.7 | 27.4 | 0.00 | 0.00 | 0.00 | 37 | 1010.5 |
| 20260503211034 | 12 | 304 | 11.3 | 11.3 | 0.00 | 0.00 | 0.00 | 39 | 1010.4 |
| 20260503210531 | 12 | 220 | 4.8 | 8.0 | 0.00 | 0.00 | 0.00 | 39 | 1010.3 |
| 20260503210027 | 12 | 346 | 3.2 | 9.7 | 0.00 | 0.00 | 0.00 | 40 | 1010.3 |
| 20260503205524 | 12 | 301 | 4.8 | 12.9 | 0.00 | 0.00 | 0.00 | 38 | 1010.2 |
| 20260503205020 | 12 | 63 | 9.7 | 17.7 | 0.00 | 0.00 | 0.00 | 37 | 1010.2 |
| 20260503204517 | 12 | 32 | 12.9 | 45.1 | 0.00 | 0.00 | 0.00 | 37 | 1010.1 |
| 20260503204014 | 13 | 34 | 6.4 | 12.9 | 0.00 | 0.00 | 0.00 | 38 | 1010.3 |
| 20260503203512 | 13 | 330 | 9.7 | 14.5 | 0.00 | 0.00 | 0.00 | 36 | 1010.0 |
| 20260503203009 | 12 | 218 | 4.8 | 27.4 | 0.00 | 0.00 | 0.00 | 37 | 1010.6 |
| 20260503202506 | 12 | 20 | 11.3 | 20.9 | 0.00 | 0.00 | 0.00 | 39 | 1010.2 |
| 20260503202004 | 12 | 47 | 8.0 | 19.3 | 0.00 | 0.00 | 0.00 | 38 | 1010.3 |
| 20260503201502 | 12 | 70 | 8.0 | 20.9 | 0.00 | 0.00 | 0.00 | 39 | 1010.3 |
| 20260503200959 | 12 | 342 | 19.3 | 24.1 | 0.00 | 0.00 | 0.00 | 37 | 1010.3 |
| 20260503200455 | 12 | 116 | 12.9 | 24.1 | 0.00 | 0.00 | 0.00 | 38 | 1010.3 |
| 20260503195952 | 12 | 14 | 17.7 | 27.4 | 0.00 | 0.00 | 0.00 | 37 | 1010.4 |
| 20260503195449 | 12 | 25 | 9.7 | 19.3 | 0.00 | 0.00 | 0.00 | 40 | 1010.2 |
| 20260503194945 | 12 | 46 | 4.8 | 27.4 | 0.00 | 0.00 | 0.00 | 38 | 1010.6 |
| 20260503194443 | 12 | 76 | 3.2 | 27.4 | 0.00 | 0.00 | 0.00 | 38 | 1010.1 |
| 20260503193938 | 11 | 142 | 3.2 | 25.7 | 0.00 | 0.00 | 0.00 | 39 | 1010.3 |
| 20260503193434 | 12 | 18 | 17.7 | 37.0 | 0.00 | 0.00 | 0.00 | 37 | 1010.4 |
| 20260503192929 | 12 | 8 | 9.7 | 24.1 | 0.00 | 0.00 | 0.00 | 40 | 1010.2 |
| 20260503192426 | 12 | 11 | 9.7 | 17.7 | 0.00 | 0.00 | 0.00 | 37 | 1010.3 |
| 20260503191922 | 12 | 160 | 4.8 | 24.1 | 0.00 | 0.00 | 0.00 | 41 | 1010.2 |
| 20260503191420 | 13 | 207 | 8.0 | 20.9 | 0.00 | 0.00 | 0.00 | 37 | 1010.4 |
| 20260503190916 | 12 | 12 | 4.8 | 20.9 | 0.00 | 0.00 | 0.00 | 39 | 1010.2 |
| 20260503190413 | 12 | 107 | 20.9 | 22.5 | 0.00 | 0.00 | 0.00 | 39 | 1009.9 |
| 20260503185910 | 11 | 136 | 9.7 | 19.3 | 0.00 | 0.00 | 0.00 | 45 | 1010.2 |
| 20260503185407 | 11 | 38 | 1.6 | 11.3 | 0.00 | 0.00 | 0.00 | 39 | 1010.1 |
| 20260503184905 | 12 | 179 | 12.9 | 17.7 | 0.00 | 0.00 | 0.00 | 39 | 1010.5 |
| 20260503184403 | 12 | 257 | 6.4 | 27.4 | 0.00 | 0.00 | 0.00 | 42 | 1010.2 |
| 20260503183859 | 12 | 30 | 8.0 | 29.0 | 0.00 | 0.00 | 0.00 | 38 | 1010.3 |
| 20260503183356 | 11 | 16 | 20.9 | 27.4 | 0.00 | 0.00 | 0.00 | 42 | 1010.4 |
| 20260503182853 | 11 | 68 | 8.0 | 30.6 | 0.00 | 0.00 | 0.00 | 39 | 1010.4 |
| 20260503182351 | 12 | 96 | 12.9 | 24.1 | 0.00 | 0.00 | 0.00 | 38 | 1010.3 |
| 20260503181848 | 12 | 52 | 3.2 | 9.7 | 0.00 | 0.00 | 0.00 | 45 | 1010.2 |
| 20260503181345 | 11 | 200 | 8.0 | 16.1 | 0.00 | 0.00 | 0.00 | 43 | 1010.4 |
| 20260503180842 | 11 | 117 | 4.8 | 19.3 | 0.00 | 0.00 | 0.00 | 40 | 1010.0 |
| 20260503180340 | 12 | 44 | 6.4 | 22.5 | 0.00 | 0.00 | 0.00 | 37 | 1010.3 |
| 20260503175836 | 12 | 2 | 3.2 | 17.7 | 0.00 | 0.00 | 0.00 | 40 | 1010.1 |
| 20260503175334 | 12 | 44 | 4.8 | 30.6 | 0.00 | 0.00 | 0.00 | 39 | 1010.1 |
| 20260503174829 | 11 | 157 | 4.8 | 14.5 | 0.00 | 0.00 | 0.00 | 41 | 1010.0 |
| 20260503174327 | 11 | 89 | 14.5 | 29.0 | 0.00 | 0.00 | 0.00 | 40 | 1010.4 |
| 20260503173823 | 11 | 296 | 3.2 | 11.3 | 0.00 | 0.00 | 0.00 | 47 | 1010.1 |
| 20260503173319 | 11 | 33 | 6.4 | 16.1 | 0.00 | 0.00 | 0.00 | 40 | 1010.2 |
| 20260503172816 | 10 | 15 | 16.1 | 24.1 | 0.00 | 0.00 | 0.00 | 40 | 1010.2 |
| 20260503172314 | 11 | 276 | 3.2 | 27.4 | 0.00 | 0.00 | 0.00 | 41 | 1010.3 |
| 20260503171809 | 10 | 14 | 8.0 | 19.3 | 0.00 | 0.00 | 0.00 | 41 | 1010.5 |
| 20260503171306 | 10 | 11 | 6.4 | 24.1 | 0.00 | 0.00 | 0.00 | 43 | 1010.5 |
| 20260503170804 | 10 | 127 | 4.8 | 16.1 | 0.00 | 0.00 | 0.00 | 49 | 1010.6 |
| 20260503170300 | 10 | 348 | 8.0 | 19.3 | 0.00 | 0.00 | 0.00 | 46 | 1010.3 |